Location: Coors Field
(39.7564°N, 104.9943°W)
Time: 17:00:15
(UTC-07:00)

ISS - Visible Passes

Search period start: 05 March 2015 00:00
Search period end: 15 March 2015 01:00
Orbit: 397 x 408 km, 51.6° (Epoch: 05 March)

Date Brightness Start Highest point End Pass type
(mag) Time Alt. Az. Time Alt. Az. Time Alt. Az.
08 Mar -1.1 06:53:45 10° SSW 06:56:28 26° SE 06:59:14 10° ENE visible
09 Mar -0.4 06:02:06 10° SSE 06:03:40 13° SE 06:05:21 10° E visible
10 Mar -3.0 06:43:36 10° SW 06:46:48 67° SE 06:50:01 10° ENE visible
11 Mar -1.8 05:52:05 18° S 05:53:52 31° SE 05:56:47 10° ENE visible
12 Mar -0.6 05:01:37 15° ESE 05:01:37 15° ESE 05:03:04 10° E visible
12 Mar -3.0 06:34:15 12° WSW 06:37:08 50° NW 06:40:18 10° NE visible
13 Mar -3.4 05:43:36 62° SW 05:44:03 81° SE 05:47:17 10° NE visible
14 Mar -0.6 04:52:48 20° ENE 04:52:48 20° ENE 04:54:04 10° ENE visible
14 Mar -2.0 06:25:25 14° WNW 06:27:31 26° NNW 06:30:17 10° NNE visible
